Showing default

HULIANWANG DIGUI-109, 66919

Orbit data source: Space-Track

HULIANWANG DIGUI-109, 66919 is a payload satellite owned by Zhongguo Xingwang (CN) in LEO that was launched on Sat, 06 Dec 2025 UTC via a CHANG ZHENG 8A launch vehicle from the Wenchang Satellite Launch Center (WSC). Payload-class satellites include a variety of spacecraft equipped with specific instruments for various scientific and technological missions. These include communications satellites like Starlink; space stations such as the ISS; scientific satellites like the Hubble; Earth observation satellites from companies like Planet Labs, Umbra, and HawkEye 360; GPS; miniature CubeSats for education and research; and military/defense satellites.

Loading next visibility...
Identifier
66919, 2025-285E
Orbit
LEO
Country
Flag of CNCN / PRC
Related business
Manufacturer
CAST
Mission
Operational Civil Communications
Bus & Motor
XINGWANG C, Unknown motor
Mass
~700 kg wet, ~700 kg dry
Launch date (UTC)
2025-12-06 (6 months ago)
Launch vehicle
CHANG ZHENG 8A
Launch site
Wenchang Satellite Launch Center (WSC)
Object type
Payload
Rocket body
Debris
Shape & HBR
Box + 2 Pan, 14.5 m
Radar Cross Section
5.935 m², Large (>1 m²)

Expand to show TLE details & history
Last TLE update: 22 hours ago

TLE from 22 hours ago
0 HULIANWANG DIGUI-109
1 66919U 25285E   26170.92385893 -.00000121  00000-0  62715-5 0  9997
2 66919  50.0053 136.1444 0001025 310.8380  49.2403 13.29315011 26433
Epoch: 2026-06-19T22:10Z
TLE epoch observation values (Epoch: 2026-06-19T22:10:21.411Z)
Latitude
-0.00003°
Longitude
-104.5907°
Altitude
1,149.351 km
Speed
7.28 km/s
True Right ascension
09h 04m 34s
True Declination
0° 00' 00"
Sunlit
Object was in daylight at epoch
Visualization orbit readout
Latitude
Unknown
Longitude
Unknown
Altitude
Unknown
Speed
Unknown
Apparent Right ascension
Unknown
Apparent Declination
Unknown
Sunlit
N/A
Visualization observer readout
Local Sidereal Time
07:15:14
Azimuth
Unknown
Elevation
Unknown
Doppler factor
Unknown
Orbital elements
Apogee altitude
1,150.824 km
Perigee altitude
1,149.281 km
Semi-major axis
7,528.19 km
Eccentricity
0.0001
Inclination
50.0053°
RAAN
136.1444°
Arg. of periapsis
310.838°
True anomaly
49.2492°
Mean anomaly
49.2403°
Eccentric anomaly
49.24475°
Mean motion
3.32282 °/min
Orbital period
108.34 mins
BSTAR
0.0000062715
Loading maneuver chart data...
Computing Atmospheric mass density...
Loading historical data...
Loading historical data...
Loading historical data...
Loading historical data...
Loading historical data...
Loading historical data...
Loading historical data...

Documentation

Showing up to 5 results
|